Time,TemperatureF,DewpointF,PressureIn,WindDirection,WindDirectionDegrees,WindSpeedMPH,WindSpeedGustMPH,Humidity,HourlyPrecipIn,Conditions,Clouds,dailyrainin,SoftwareType,DateUTC
2013-01-05 00:30:00,30.1,20.8,29.74,West,270,0.0,-999.0,68,0.00,,,0.00,Wunderground v.1.15,2013-01-05 05:30:00,
2013-01-05 00:35:00,30.1,20.8,29.74,West,270,0.0,-999.0,68,0.00,,,0.00,Wunderground v.1.15,2013-01-05 05:35:00,
2013-01-05 00:40:00,30.1,20.8,29.74,West,270,0.0,-999.0,68,0.00,,,0.00,Wunderground v.1.15,2013-01-05 05:40:00,
2013-01-05 00:45:00,31.1,19.6,29.74,West,270,2.0,-999.0,62,0.00,,,0.00,Wunderground v.1.15,2013-01-05 05:45:00,
2013-01-05 00:50:00,31.1,19.6,29.74,West,270,2.0,-999.0,62,0.00,,,0.00,Wunderground v.1.15,2013-01-05 05:50:00,
2013-01-05 00:55:00,31.1,19.6,29.74,West,270,2.0,-999.0,62,0.00,,,0.00,Wunderground v.1.15,2013-01-05 05:55:00,
2013-01-05 01:00:00,31.1,19.6,29.74,West,270,2.0,-999.0,62,0.00,,,0.00,Wunderground v.1.15,2013-01-05 06:00:00,
2013-01-05 01:05:00,31.1,19.6,29.74,West,270,2.0,-999.0,62,0.00,,,0.00,Wunderground v.1.15,2013-01-05 06:05:00,
2013-01-05 01:10:00,31.1,19.6,29.74,West,270,2.0,-999.0,62,0.00,,,0.00,Wunderground v.1.15,2013-01-05 06:10:00,
2013-01-05 01:15:00,32.7,21.1,29.74,WSW,248,3.0,-999.0,62,0.00,,,0.00,Wunderground v.1.15,2013-01-05 06:15:00,
2013-01-05 01:20:00,32.7,21.1,29.74,WSW,248,3.0,-999.0,62,0.00,,,0.00,Wunderground v.1.15,2013-01-05 06:20:00,
2013-01-05 01:25:00,32.7,21.1,29.74,WSW,248,3.0,-999.0,62,0.00,,,0.00,Wunderground v.1.15,2013-01-05 06:25:00,
2013-01-05 01:30:00,32.7,21.1,29.74,WSW,248,3.0,-999.0,62,0.00,,,0.00,Wunderground v.1.15,2013-01-05 06:30:00,
2013-01-05 01:35:00,32.7,21.1,29.74,WSW,248,3.0,-999.0,62,0.00,,,0.00,Wunderground v.1.15,2013-01-05 06:35:00,
2013-01-05 01:40:00,32.7,21.1,29.74,WSW,248,3.0,-999.0,62,0.00,,,0.00,Wunderground v.1.15,2013-01-05 06:40:00,
2013-01-05 01:45:00,32.1,20.9,29.74,West,270,2.0,-999.0,63,0.00,,,0.00,Wunderground v.1.15,2013-01-05 06:45:00,
2013-01-05 01:50:00,32.1,20.9,29.74,West,270,2.0,-999.0,63,0.00,,,0.00,Wunderground v.1.15,2013-01-05 06:50:00,
2013-01-05 01:55:00,32.1,20.9,29.74,West,270,2.0,-999.0,63,0.00,,,0.00,Wunderground v.1.15,2013-01-05 06:55:00,
2013-01-05 02:00:00,32.1,20.9,29.74,West,270,2.0,-999.0,63,0.00,,,0.00,Wunderground v.1.15,2013-01-05 07:00:00,
2013-01-05 02:05:00,32.1,20.9,29.74,West,270,2.0,-999.0,63,0.00,,,0.00,Wunderground v.1.15,2013-01-05 07:05:00,
2013-01-05 02:10:00,32.1,20.9,29.74,West,270,2.0,-999.0,63,0.00,,,0.00,Wunderground v.1.15,2013-01-05 07:10:00,
2013-01-05 02:15:00,31.7,20.5,29.74,WSW,248,3.0,-999.0,63,0.00,,,0.00,Wunderground v.1.15,2013-01-05 07:15:00,
2013-01-05 02:20:00,31.7,20.5,29.74,WSW,248,3.0,-999.0,63,0.00,,,0.00,Wunderground v.1.15,2013-01-05 07:20:00,
2013-01-05 02:25:00,31.7,20.5,29.74,WSW,248,3.0,-999.0,63,0.00,,,0.00,Wunderground v.1.15,2013-01-05 07:25:00,
2013-01-05 02:30:00,31.7,20.5,29.74,WSW,248,3.0,-999.0,63,0.00,,,0.00,Wunderground v.1.15,2013-01-05 07:30:00,
2013-01-05 02:35:00,31.7,20.5,29.74,WSW,248,3.0,-999.0,63,0.00,,,0.00,Wunderground v.1.15,2013-01-05 07:35:00,
2013-01-05 02:40:00,31.7,20.5,29.74,WSW,248,3.0,-999.0,63,0.00,,,0.00,Wunderground v.1.15,2013-01-05 07:40:00,
2013-01-05 02:45:00,31.7,20.9,29.74,WSW,248,4.0,-999.0,64,0.00,,,0.00,Wunderground v.1.15,2013-01-05 07:45:00,
2013-01-05 02:50:00,31.7,20.9,29.74,WSW,248,4.0,-999.0,64,0.00,,,0.00,Wunderground v.1.15,2013-01-05 07:50:00,
2013-01-05 02:55:00,31.7,20.9,29.74,WSW,248,4.0,-999.0,64,0.00,,,0.00,Wunderground v.1.15,2013-01-05 07:55:00,
2013-01-05 03:00:00,31.7,20.9,29.74,WSW,248,4.0,-999.0,64,0.00,,,0.00,Wunderground v.1.15,2013-01-05 08:00:00,
2013-01-05 03:05:00,31.7,20.9,29.74,WSW,248,4.0,-999.0,64,0.00,,,0.00,Wunderground v.1.15,2013-01-05 08:05:00,
2013-01-05 03:10:00,31.7,20.9,29.74,WSW,248,4.0,-999.0,64,0.00,,,0.00,Wunderground v.1.15,2013-01-05 08:10:00,
2013-01-05 03:15:00,31.2,20.8,29.74,West,270,2.0,-999.0,65,0.00,,,0.00,Wunderground v.1.15,2013-01-05 08:15:00,
2013-01-05 03:20:00,31.2,20.8,29.74,West,270,2.0,-999.0,65,0.00,,,0.00,Wunderground v.1.15,2013-01-05 08:20:00,
2013-01-05 03:25:00,31.2,20.8,29.74,West,270,2.0,-999.0,65,0.00,,,0.00,Wunderground v.1.15,2013-01-05 08:25:00,
2013-01-05 03:30:00,31.2,20.8,29.74,West,270,2.0,-999.0,65,0.00,,,0.00,Wunderground v.1.15,2013-01-05 08:30:00,
2013-01-05 03:35:00,31.2,20.8,29.74,West,270,2.0,-999.0,65,0.00,,,0.00,Wunderground v.1.15,2013-01-05 08:35:00,
2013-01-05 03:40:00,31.2,20.8,29.74,West,270,2.0,-999.0,65,0.00,,,0.00,Wunderground v.1.15,2013-01-05 08:40:00,
2013-01-05 03:45:00,30.7,20.7,29.74,WSW,248,2.0,-999.0,66,0.00,,,0.00,Wunderground v.1.15,2013-01-05 08:45:00,
2013-01-05 03:50:00,30.7,20.7,29.74,WSW,248,2.0,-999.0,66,0.00,,,0.00,Wunderground v.1.15,2013-01-05 08:50:00,
2013-01-05 03:55:00,30.7,20.7,29.74,WSW,248,2.0,-999.0,66,0.00,,,0.00,Wunderground v.1.15,2013-01-05 08:55:00,
2013-01-05 04:00:00,30.7,20.7,29.74,WSW,248,2.0,-999.0,66,0.00,,,0.00,Wunderground v.1.15,2013-01-05 09:00:00,
2013-01-05 04:05:00,30.7,20.7,29.74,WSW,248,2.0,-999.0,66,0.00,,,0.00,Wunderground v.1.15,2013-01-05 09:05:00,
2013-01-05 04:10:00,30.7,20.7,29.74,WSW,248,2.0,-999.0,66,0.00,,,0.00,Wunderground v.1.15,2013-01-05 09:10:00,
2013-01-05 04:15:00,30.2,20.6,29.74,WSW,248,2.0,-999.0,67,0.00,,,0.00,Wunderground v.1.15,2013-01-05 09:15:00,
2013-01-05 04:20:00,30.2,20.6,29.74,WSW,248,2.0,-999.0,67,0.00,,,0.00,Wunderground v.1.15,2013-01-05 09:20:00,
2013-01-05 04:25:00,30.2,20.6,29.74,WSW,248,2.0,-999.0,67,0.00,,,0.00,Wunderground v.1.15,2013-01-05 09:25:00,
2013-01-05 04:30:00,30.2,20.6,29.74,WSW,248,2.0,-999.0,67,0.00,,,0.00,Wunderground v.1.15,2013-01-05 09:30:00,
2013-01-05 04:35:00,30.2,20.6,29.74,WSW,248,2.0,-999.0,67,0.00,,,0.00,Wunderground v.1.15,2013-01-05 09:35:00,
2013-01-05 04:40:00,30.2,20.6,29.74,WSW,248,2.0,-999.0,67,0.00,,,0.00,Wunderground v.1.15,2013-01-05 09:40:00,
2013-01-05 04:45:00,29.9,20.3,29.74,West,270,3.0,-999.0,67,0.00,,,0.00,Wunderground v.1.15,2013-01-05 09:45:00,
2013-01-05 04:50:00,29.9,20.3,29.74,West,270,3.0,-999.0,67,0.00,,,0.00,Wunderground v.1.15,2013-01-05 09:50:00,
2013-01-05 04:55:00,29.9,20.3,29.74,West,270,3.0,-999.0,67,0.00,,,0.00,Wunderground v.1.15,2013-01-05 09:55:00,
2013-01-05 05:00:00,29.9,20.3,29.74,West,270,3.0,-999.0,67,0.00,,,0.00,Wunderground v.1.15,2013-01-05 10:00:00,
2013-01-05 05:05:00,29.9,20.3,29.74,West,270,3.0,-999.0,67,0.00,,,0.00,Wunderground v.1.15,2013-01-05 10:05:00,
2013-01-05 05:10:00,29.9,20.3,29.74,West,270,3.0,-999.0,67,0.00,,,0.00,Wunderground v.1.15,2013-01-05 10:10:00,
2013-01-05 05:15:00,29.6,20.3,29.74,WSW,248,2.0,-999.0,68,0.00,,,0.00,Wunderground v.1.15,2013-01-05 10:15:00,
2013-01-05 05:20:00,29.6,20.3,29.74,WSW,248,2.0,-999.0,68,0.00,,,0.00,Wunderground v.1.15,2013-01-05 10:20:00,
2013-01-05 05:25:00,29.6,20.3,29.74,WSW,248,2.0,-999.0,68,0.00,,,0.00,Wunderground v.1.15,2013-01-05 10:25:00,
2013-01-05 05:30:00,29.6,20.3,29.74,WSW,248,2.0,-999.0,68,0.00,,,0.00,Wunderground v.1.15,2013-01-05 10:30:00,
2013-01-05 05:35:00,29.6,20.3,29.74,WSW,248,2.0,-999.0,68,0.00,,,0.00,Wunderground v.1.15,2013-01-05 10:35:00,
2013-01-05 05:40:00,29.6,20.3,29.74,WSW,248,2.0,-999.0,68,0.00,,,0.00,Wunderground v.1.15,2013-01-05 10:40:00,
2013-01-05 05:45:00,29.6,20.3,29.74,WSW,248,2.0,-999.0,68,0.00,,,0.00,Wunderground v.1.15,2013-01-05 10:45:00,
2013-01-05 05:50:00,29.6,20.3,29.74,WSW,248,2.0,-999.0,68,0.00,,,0.00,Wunderground v.1.15,2013-01-05 10:50:00,
2013-01-05 05:55:00,29.6,20.3,29.74,WSW,248,2.0,-999.0,68,0.00,,,0.00,Wunderground v.1.15,2013-01-05 10:55:00,
2013-01-05 06:00:00,29.6,20.3,29.74,WSW,248,2.0,-999.0,68,0.00,,,0.00,Wunderground v.1.15,2013-01-05 11:00:00,
2013-01-05 06:05:00,29.6,20.3,29.74,WSW,248,2.0,-999.0,68,0.00,,,0.00,Wunderground v.1.15,2013-01-05 11:05:00,
2013-01-05 06:10:00,29.6,20.3,29.74,WSW,248,2.0,-999.0,68,0.00,,,0.00,Wunderground v.1.15,2013-01-05 11:10:00,
2013-01-05 06:15:00,29.1,19.8,29.74,West,270,1.0,-999.0,68,0.00,,,0.00,Wunderground v.1.15,2013-01-05 11:15:00,
2013-01-05 06:20:00,29.1,19.8,29.74,West,270,1.0,-999.0,68,0.00,,,0.00,Wunderground v.1.15,2013-01-05 11:20:00,
2013-01-05 06:25:00,29.1,19.8,29.74,West,270,1.0,-999.0,68,0.00,,,0.00,Wunderground v.1.15,2013-01-05 11:25:00,
2013-01-05 06:30:00,29.1,19.8,29.74,West,270,1.0,-999.0,68,0.00,,,0.00,Wunderground v.1.15,2013-01-05 11:30:00,
2013-01-05 06:35:00,29.1,19.8,29.74,West,270,1.0,-999.0,68,0.00,,,0.00,Wunderground v.1.15,2013-01-05 11:35:00,
2013-01-05 06:40:00,29.1,19.8,29.74,West,270,1.0,-999.0,68,0.00,,,0.00,Wunderground v.1.15,2013-01-05 11:40:00,
2013-01-05 06:45:00,29.1,20.2,29.74,WSW,248,1.0,-999.0,69,0.00,,,0.00,Wunderground v.1.15,2013-01-05 11:45:00,
2013-01-05 06:50:00,29.1,20.2,29.74,WSW,248,1.0,-999.0,69,0.00,,,0.00,Wunderground v.1.15,2013-01-05 11:50:00,
2013-01-05 06:55:00,29.1,20.2,29.74,WSW,248,1.0,-999.0,69,0.00,,,0.00,Wunderground v.1.15,2013-01-05 11:55:00,
2013-01-05 07:00:00,29.1,20.2,29.74,WSW,248,1.0,-999.0,69,0.00,,,0.00,Wunderground v.1.15,2013-01-05 12:00:00,
2013-01-05 07:05:00,29.1,20.2,29.74,WSW,248,1.0,-999.0,69,0.00,,,0.00,Wunderground v.1.15,2013-01-05 12:05:00,
2013-01-05 07:07:00,28.8,19.9,29.74,West,276,0.0,12.0,69,0.00,,,0.00,Wunderground v.1.15,2013-01-05 12:07:00,
2013-01-05 07:10:00,29.1,20.2,29.74,WSW,248,1.0,-999.0,69,0.00,,,0.00,Wunderground v.1.15,2013-01-05 12:10:00,
2013-01-05 07:15:00,28.8,20.2,29.74,West,270,0.0,-999.0,70,0.00,,,0.00,Wunderground v.1.15,2013-01-05 12:15:00,
2013-01-05 07:20:00,28.8,20.2,29.74,West,270,0.0,-999.0,70,0.00,,,0.00,Wunderground v.1.15,2013-01-05 12:20:00,
2013-01-05 07:25:00,28.8,20.2,29.74,West,270,0.0,-999.0,70,0.00,,,0.00,Wunderground v.1.15,2013-01-05 12:25:00,
2013-01-05 07:30:00,28.8,20.2,29.74,West,270,0.0,-999.0,70,0.00,,,0.00,Wunderground v.1.15,2013-01-05 12:30:00,
2013-01-05 07:35:00,28.8,20.2,29.74,West,270,0.0,-999.0,70,0.00,,,0.00,Wunderground v.1.15,2013-01-05 12:35:00,
2013-01-05 07:40:00,28.8,20.2,29.74,West,270,0.0,-999.0,70,0.00,,,0.00,Wunderground v.1.15,2013-01-05 12:40:00,
2013-01-05 07:45:00,29.2,20.3,29.74,West,270,2.0,-999.0,69,0.00,,,0.00,Wunderground v.1.15,2013-01-05 12:45:00,
2013-01-05 07:50:00,29.2,20.3,29.74,West,270,2.0,-999.0,69,0.00,,,0.00,Wunderground v.1.15,2013-01-05 12:50:00,
2013-01-05 07:55:00,29.2,20.3,29.74,West,270,2.0,-999.0,69,0.00,,,0.00,Wunderground v.1.15,2013-01-05 12:55:00,
2013-01-05 08:00:00,29.2,20.3,29.74,West,270,2.0,-999.0,69,0.00,,,0.00,Wunderground v.1.15,2013-01-05 13:00:00,
2013-01-05 08:05:00,29.2,20.3,29.74,West,270,2.0,-999.0,69,0.00,,,0.00,Wunderground v.1.15,2013-01-05 13:05:00,
2013-01-05 08:10:00,29.2,20.3,29.74,West,270,2.0,-999.0,69,0.00,,,0.00,Wunderground v.1.15,2013-01-05 13:10:00,
2013-01-05 08:15:00,30.5,21.2,29.74,West,270,5.0,-999.0,68,0.00,,,0.00,Wunderground v.1.15,2013-01-05 13:15:00,
2013-01-05 08:20:00,30.5,21.2,29.74,West,270,5.0,-999.0,68,0.00,,,0.00,Wunderground v.1.15,2013-01-05 13:20:00,
2013-01-05 08:32:00,30.5,21.2,29.74,West,270,5.0,-999.0,68,0.00,,,0.00,Wunderground v.1.15,2013-01-05 13:32:00,
2013-01-05 08:37:00,31.2,21.5,29.74,West,270,4.0,12.0,67,0.00,,,0.00,Wunderground v.1.15,2013-01-05 13:37:00,
2013-01-05 08:43:00,31.5,21.8,29.74,WSW,238,4.0,6.0,67,0.00,,,0.00,Wunderground v.1.15,2013-01-05 13:43:00,
2013-01-05 08:48:00,31.6,21.9,29.74,West,260,3.0,7.0,67,0.00,,,0.00,Wunderground v.1.15,2013-01-05 13:48:00,
2013-01-05 08:54:00,31.9,21.8,29.74,West,261,3.0,5.0,66,0.00,,,0.00,Wunderground v.1.15,2013-01-05 13:54:00,
2013-01-05 08:59:00,32.1,22.0,29.74,SW,227,3.0,6.0,66,0.00,,,0.00,Wunderground v.1.15,2013-01-05 13:59:00,
2013-01-05 09:04:00,32.3,22.2,29.74,West,278,4.0,5.0,66,0.00,,,0.00,Wunderground v.1.15,2013-01-05 14:04:00,
2013-01-05 09:10:00,32.4,22.3,29.74,West,276,4.0,4.0,66,0.00,,,0.00,Wunderground v.1.15,2013-01-05 14:10:00,
2013-01-05 09:15:00,32.7,22.6,29.74,SW,234,3.0,5.0,66,0.00,,,0.00,Wunderground v.1.15,2013-01-05 14:15:00,
2013-01-05 09:21:00,33.0,22.9,29.74,West,281,3.0,6.0,66,0.00,,,0.00,Wunderground v.1.15,2013-01-05 14:21:00,
2013-01-05 09:27:00,33.3,22.8,29.74,SSW,203,4.0,7.0,65,0.00,,,0.00,Wunderground v.1.15,2013-01-05 14:27:00,
2013-01-05 09:33:00,33.7,23.2,29.74,WNW,283,4.0,9.0,65,0.00,,,0.00,Wunderground v.1.15,2013-01-05 14:33:00,
2013-01-05 09:39:00,33.9,23.0,29.74,West,263,5.0,9.0,64,0.00,,,0.00,Wunderground v.1.15,2013-01-05 14:39:00,
2013-01-05 09:44:00,34.1,23.2,29.74,WSW,245,5.0,7.0,64,0.00,,,0.00,Wunderground v.1.15,2013-01-05 14:44:00,
2013-01-05 09:49:00,34.4,23.5,29.74,West,265,4.0,8.0,64,0.00,,,0.00,Wunderground v.1.15,2013-01-05 14:49:00,
2013-01-05 09:55:00,34.4,23.8,29.74,WSW,248,3.0,7.0,65,0.00,,,0.00,Wunderground v.1.15,2013-01-05 14:55:00,
2013-01-05 10:00:00,34.6,23.3,29.74,WSW,249,3.0,3.0,63,0.00,,,0.00,Wunderground v.1.15,2013-01-05 15:00:00,
2013-01-05 10:06:00,34.8,23.5,29.74,West,259,4.0,6.0,63,0.00,,,0.00,Wunderground v.1.15,2013-01-05 15:06:00,
2013-01-05 10:12:00,35.0,24.0,29.74,West,261,4.0,6.0,64,0.00,,,0.00,Wunderground v.1.15,2013-01-05 15:12:00,
2013-01-05 10:18:00,35.3,24.3,29.74,West,273,3.0,10.0,64,0.00,,,0.00,Wunderground v.1.15,2013-01-05 15:18:00,
2013-01-05 10:24:00,35.6,23.9,29.74,WSW,245,2.0,7.0,62,0.00,,,0.00,Wunderground v.1.15,2013-01-05 15:24:00,
2013-01-05 10:30:00,35.9,24.5,29.74,WSW,252,3.0,3.0,63,0.00,,,0.00,Wunderground v.1.15,2013-01-05 15:30:00,
2013-01-05 10:35:00,36.0,24.2,29.74,South,169,3.0,10.0,62,0.00,,,0.00,Wunderground v.1.15,2013-01-05 15:35:00,
2013-01-05 10:41:00,35.9,24.1,29.74,NNE,32,3.0,3.0,62,0.00,,,0.00,Wunderground v.1.15,2013-01-05 15:41:00,
2013-01-05 10:46:00,35.7,24.3,29.74,SW,236,3.0,6.0,63,0.00,,,0.00,Wunderground v.1.15,2013-01-05 15:46:00,
2013-01-05 10:52:00,35.8,24.4,29.74,SW,215,3.0,7.0,63,0.00,,,0.00,Wunderground v.1.15,2013-01-05 15:52:00,
2013-01-05 10:57:00,35.9,24.1,29.74,West,271,3.0,8.0,62,0.00,,,0.00,Wunderground v.1.15,2013-01-05 15:57:00,
2013-01-05 11:02:00,36.1,24.3,29.74,West,279,4.0,8.0,62,0.00,,,0.00,Wunderground v.1.15,2013-01-05 16:02:00,
2013-01-05 11:07:00,36.5,24.7,29.74,WSW,246,4.0,8.0,62,0.00,,,0.00,Wunderground v.1.15,2013-01-05 16:07:00,
2013-01-05 11:13:00,36.9,25.1,29.74,NNW,331,4.0,5.0,62,0.00,,,0.00,Wunderground v.1.15,2013-01-05 16:13:00,
2013-01-05 11:18:00,37.1,25.3,29.74,West,272,3.0,13.0,62,0.00,,,0.00,Wunderground v.1.15,2013-01-05 16:18:00,
2013-01-05 11:24:00,37.2,25.0,29.74,SW,232,4.0,6.0,61,0.00,,,0.00,Wunderground v.1.15,2013-01-05 16:24:00,
2013-01-05 11:30:00,37.6,25.4,29.74,SW,221,2.0,2.0,61,0.00,,,0.00,Wunderground v.1.15,2013-01-05 16:30:00,
2013-01-05 11:35:00,37.9,25.6,29.74,SW,225,1.0,2.0,61,0.00,,,0.00,Wunderground v.1.15,2013-01-05 16:35:00,
2013-01-05 11:41:00,38.2,25.5,29.74,West,259,1.0,1.0,60,0.00,,,0.00,Wunderground v.1.15,2013-01-05 16:41:00,
2013-01-05 11:47:00,38.4,25.7,29.74,WSW,254,2.0,2.0,60,0.00,,,0.00,Wunderground v.1.15,2013-01-05 16:47:00,
2013-01-05 11:52:00,38.7,26.0,29.74,West,262,1.0,6.0,60,0.00,,,0.00,Wunderground v.1.15,2013-01-05 16:52:00,
2013-01-05 11:58:00,39.0,25.9,29.74,South,183,1.0,6.0,59,0.00,,,0.00,Wunderground v.1.15,2013-01-05 16:58:00,
2013-01-05 12:03:00,39.1,26.4,29.74,WSW,247,1.0,2.0,60,0.00,,,0.00,Wunderground v.1.15,2013-01-05 17:03:00,
2013-01-05 12:26:00,39.2,25.6,29.74,SW,228,2.0,6.0,58,0.00,,,0.00,Wunderground v.1.15,2013-01-05 17:26:00,
2013-01-05 12:31:00,39.0,25.5,29.74,WSW,242,3.0,6.0,58,0.00,,,0.00,Wunderground v.1.15,2013-01-05 17:31:00,
2013-01-05 12:36:00,39.1,25.6,29.74,East,96,3.0,3.0,58,0.00,,,0.00,Wunderground v.1.15,2013-01-05 17:36:00,
2013-01-05 12:42:00,38.8,25.3,29.74,West,267,2.0,13.0,58,0.00,,,0.00,Wunderground v.1.15,2013-01-05 17:42:00,
2013-01-05 12:48:00,39.3,26.2,29.74,WSW,249,2.0,2.0,59,0.00,,,0.00,Wunderground v.1.15,2013-01-05 17:48:00,
2013-01-05 12:54:00,40.0,26.0,29.74,SSE,157,0.0,2.0,57,0.00,,,0.00,Wunderground v.1.15,2013-01-05 17:54:00,
2013-01-05 13:00:00,40.3,26.7,29.74,WSW,256,1.0,1.0,58,0.00,,,0.00,Wunderground v.1.15,2013-01-05 18:00:00,
2013-01-05 13:06:00,40.3,26.3,29.74,SW,230,1.0,1.0,57,0.00,,,0.00,Wunderground v.1.15,2013-01-05 18:06:00,
2013-01-05 13:12:00,40.0,26.0,29.74,North,349,2.0,4.0,57,0.00,,,0.00,Wunderground v.1.15,2013-01-05 18:12:00,
2013-01-05 13:17:00,40.3,26.3,29.74,NE,46,2.0,4.0,57,0.00,,,0.00,Wunderground v.1.15,2013-01-05 18:17:00,
2013-01-05 13:23:00,40.8,26.3,29.74,ENE,67,0.0,1.0,56,0.00,,,0.00,Wunderground v.1.15,2013-01-05 18:23:00,
2013-01-05 13:28:00,41.0,26.5,29.74,NNW,327,0.0,1.0,56,0.00,,,0.00,Wunderground v.1.15,2013-01-05 18:28:00,
2013-01-05 13:33:00,41.1,26.6,29.74,SSW,207,1.0,2.0,56,0.00,,,0.00,Wunderground v.1.15,2013-01-05 18:33:00,
2013-01-05 13:39:00,40.6,26.5,29.74,West,259,2.0,6.0,57,0.00,,,0.00,Wunderground v.1.15,2013-01-05 18:39:00,
2013-01-05 13:45:00,40.8,26.3,29.74,WSW,249,1.0,2.0,56,0.00,,,0.00,Wunderground v.1.15,2013-01-05 18:45:00,
2013-01-05 13:50:00,40.9,26.0,29.74,West,263,1.0,2.0,55,0.00,,,0.00,Wunderground v.1.15,2013-01-05 18:50:00,
2013-01-05 13:56:00,40.2,25.7,29.74,West,265,2.0,5.0,56,0.00,,,0.00,Wunderground v.1.15,2013-01-05 18:56:00,
2013-01-05 14:02:00,39.9,25.5,29.74,West,260,3.0,5.0,56,0.00,,,0.00,Wunderground v.1.15,2013-01-05 19:02:00,
2013-01-05 14:07:00,39.9,25.5,29.74,West,262,3.0,7.0,56,0.00,,,0.00,Wunderground v.1.15,2013-01-05 19:07:00,
2013-01-05 14:13:00,39.9,25.9,29.74,WSW,257,2.0,7.0,57,0.00,,,0.00,Wunderground v.1.15,2013-01-05 19:13:00,
2013-01-05 14:18:00,39.7,25.7,29.74,WSW,242,3.0,7.0,57,0.00,,,0.00,Wunderground v.1.15,2013-01-05 19:18:00,
2013-01-05 14:24:00,40.0,26.0,29.74,SW,236,3.0,5.0,57,0.00,,,0.00,Wunderground v.1.15,2013-01-05 19:24:00,
2013-01-05 14:29:00,39.5,25.5,29.74,West,281,3.0,8.0,57,0.00,,,0.00,Wunderground v.1.15,2013-01-05 19:29:00,
2013-01-05 14:34:00,39.6,25.6,29.74,WSW,250,3.0,5.0,57,0.00,,,0.00,Wunderground v.1.15,2013-01-05 19:34:00,
2013-01-05 14:40:00,39.6,25.6,29.74,WSW,257,3.0,4.0,57,0.00,,,0.00,Wunderground v.1.15,2013-01-05 19:40:00,
2013-01-05 14:46:00,39.5,25.5,29.74,WSW,248,4.0,10.0,57,0.00,,,0.00,Wunderground v.1.15,2013-01-05 19:46:00,
2013-01-05 14:51:00,39.6,25.6,29.74,West,265,3.0,3.0,57,0.00,,,0.00,Wunderground v.1.15,2013-01-05 19:51:00,
2013-01-05 14:57:00,39.8,25.8,29.74,SW,233,2.0,3.0,57,0.00,,,0.00,Wunderground v.1.15,2013-01-05 19:57:00,
2013-01-05 15:03:00,39.5,25.5,29.74,West,265,3.0,6.0,57,0.00,,,0.00,Wunderground v.1.15,2013-01-05 20:03:00,
2013-01-05 15:09:00,39.3,25.3,29.74,West,273,3.0,6.0,57,0.00,,,0.00,Wunderground v.1.15,2013-01-05 20:09:00,
2013-01-05 15:14:00,39.2,25.2,29.74,West,277,2.0,6.0,57,0.00,,,0.00,Wunderground v.1.15,2013-01-05 20:14:00,
2013-01-05 15:20:00,39.1,25.1,29.74,WSW,245,3.0,3.0,57,0.00,,,0.00,Wunderground v.1.15,2013-01-05 20:20:00,
2013-01-05 15:25:00,39.4,25.4,29.74,WSW,244,2.0,3.0,57,0.00,,,0.00,Wunderground v.1.15,2013-01-05 20:25:00,
2013-01-05 15:31:00,39.3,24.9,29.74,WSW,249,1.0,7.0,56,0.00,,,0.00,Wunderground v.1.15,2013-01-05 20:31:00,
2013-01-05 15:36:00,39.2,25.2,29.74,WSW,250,1.0,7.0,57,0.00,,,0.00,Wunderground v.1.15,2013-01-05 20:36:00,
2013-01-05 15:42:00,39.2,25.2,29.74,WSW,249,1.0,1.0,57,0.00,,,0.00,Wunderground v.1.15,2013-01-05 20:42:00,
2013-01-05 15:48:00,38.9,24.9,29.74,WSW,248,1.0,4.0,57,0.00,,,0.00,Wunderground v.1.15,2013-01-05 20:48:00,
2013-01-05 15:54:00,38.8,24.9,29.74,WSW,249,1.0,4.0,57,0.00,,,0.00,Wunderground v.1.15,2013-01-05 20:54:00,
2013-01-05 16:00:00,38.5,25.0,29.74,WSW,246,1.0,1.0,58,0.00,,,0.00,Wunderground v.1.15,2013-01-05 21:00:00,
2013-01-05 16:06:00,38.2,24.7,29.74,WSW,247,1.0,1.0,58,0.00,,,0.00,Wunderground v.1.15,2013-01-05 21:06:00,
2013-01-05 16:12:00,38.0,24.5,29.74,WSW,247,0.0,0.0,58,0.00,,,0.00,Wunderground v.1.15,2013-01-05 21:12:00,
2013-01-05 16:18:00,37.7,24.6,29.74,WSW,247,0.0,0.0,59,0.00,,,0.00,Wunderground v.1.15,2013-01-05 21:18:00,
2013-01-05 16:24:00,37.3,24.7,29.74,WSW,246,0.0,1.0,60,0.00,,,0.00,Wunderground v.1.15,2013-01-05 21:24:00,
2013-01-05 16:30:00,37.0,24.4,29.74,WSW,257,1.0,1.0,60,0.00,,,0.00,Wunderground v.1.15,2013-01-05 21:30:00,
2013-01-05 16:35:00,36.7,24.1,29.74,WSW,257,1.0,1.0,60,0.00,,,0.00,Wunderground v.1.15,2013-01-05 21:35:00,
2013-01-05 16:41:00,36.3,24.1,29.74,WSW,257,0.0,0.0,61,0.00,,,0.00,Wunderground v.1.15,2013-01-05 21:41:00,
2013-01-05 16:46:00,35.9,24.1,29.74,WSW,257,0.0,0.0,62,0.00,,,0.00,Wunderground v.1.15,2013-01-05 21:46:00,
2013-01-05 16:51:00,35.3,24.0,29.74,WSW,257,0.0,0.0,63,0.00,,,0.00,Wunderground v.1.15,2013-01-05 21:51:00,
2013-01-05 16:57:00,34.5,23.2,29.74,WSW,257,0.0,0.0,63,0.00,,,0.00,Wunderground v.1.15,2013-01-05 21:57:00,
2013-01-05 17:03:00,33.8,22.9,29.74,WSW,257,0.0,0.0,64,0.00,,,0.00,Wunderground v.1.15,2013-01-05 22:03:00,
2013-01-05 17:09:00,33.0,22.9,29.74,WSW,257,0.0,0.0,66,0.00,,,0.00,Wunderground v.1.15,2013-01-05 22:09:00,
2013-01-05 17:15:00,32.3,22.6,29.74,WSW,257,0.0,0.0,67,0.00,,,0.00,Wunderground v.1.15,2013-01-05 22:15:00,
2013-01-05 17:20:00,31.7,22.3,29.74,WSW,256,0.0,0.0,68,0.00,,,0.00,Wunderground v.1.15,2013-01-05 22:20:00,
2013-01-05 17:26:00,31.2,22.2,29.74,WSW,256,0.0,0.0,69,0.00,,,0.00,Wunderground v.1.15,2013-01-05 22:26:00,
2013-01-05 17:31:00,30.8,22.2,29.74,WSW,257,0.0,0.0,70,0.00,,,0.00,Wunderground v.1.15,2013-01-05 22:31:00,
2013-01-05 17:37:00,30.4,22.1,29.74,WSW,257,0.0,0.0,71,0.00,,,0.00,Wunderground v.1.15,2013-01-05 22:37:00,
2013-01-05 17:42:00,30.0,22.1,29.74,WSW,257,0.0,0.0,72,0.00,,,0.00,Wunderground v.1.15,2013-01-05 22:42:00,
2013-01-05 17:48:00,29.6,21.7,29.74,WSW,257,0.0,0.0,72,0.00,,,0.00,Wunderground v.1.15,2013-01-05 22:48:00,
2013-01-05 17:54:00,29.2,21.3,29.74,WSW,256,0.0,0.0,72,0.00,,,0.00,Wunderground v.1.15,2013-01-05 22:54:00,
2013-01-05 18:00:00,28.8,21.2,29.74,WSW,257,0.0,0.0,73,0.00,,,0.00,Wunderground v.1.15,2013-01-05 23:00:00,
2013-01-05 18:06:00,28.4,21.2,29.74,WSW,257,0.0,0.0,74,0.00,,,0.00,Wunderground v.1.15,2013-01-05 23:06:00,
2013-01-05 18:12:00,28.0,21.1,29.74,WSW,256,0.0,0.0,75,0.00,,,0.00,Wunderground v.1.15,2013-01-05 23:12:00,
2013-01-05 18:18:00,27.7,21.1,29.74,WSW,256,0.0,0.0,76,0.00,,,0.00,Wunderground v.1.15,2013-01-05 23:18:00,
2013-01-05 18:24:00,27.4,20.8,29.74,WSW,256,0.0,0.0,76,0.00,,,0.00,Wunderground v.1.15,2013-01-05 23:24:00,
2013-01-05 18:30:00,27.2,20.9,29.74,WSW,256,0.0,0.0,77,0.00,,,0.00,Wunderground v.1.15,2013-01-05 23:30:00,
2013-01-05 18:35:00,27.1,20.8,29.74,WSW,257,0.0,0.0,77,0.00,,,0.00,Wunderground v.1.15,2013-01-05 23:35:00,
2013-01-05 18:41:00,27.0,21.1,29.74,WSW,257,0.0,0.0,78,0.00,,,0.00,Wunderground v.1.15,2013-01-05 23:41:00,
2013-01-05 18:47:00,27.1,21.2,29.74,WSW,256,0.0,0.0,78,0.00,,,0.00,Wunderground v.1.15,2013-01-05 23:47:00,
2013-01-05 18:52:00,27.1,21.2,29.74,WSW,257,0.0,0.0,78,0.00,,,0.00,Wunderground v.1.15,2013-01-05 23:52:00,
2013-01-05 18:57:00,27.1,21.2,29.74,WSW,256,0.0,0.0,78,0.00,,,0.00,Wunderground v.1.15,2013-01-05 23:57:00,
2013-01-05 19:03:00,27.1,21.2,29.74,WSW,256,0.0,0.0,78,0.00,,,0.00,Wunderground v.1.15,2013-01-06 00:03:00,
2013-01-05 19:09:00,27.2,21.5,29.74,WSW,257,0.0,0.0,79,0.00,,,0.00,Wunderground v.1.15,2013-01-06 00:09:00,
2013-01-05 19:14:00,27.2,21.5,29.74,WSW,256,0.0,0.0,79,0.00,,,0.00,Wunderground v.1.15,2013-01-06 00:14:00,
2013-01-05 19:19:00,27.2,21.2,29.74,WSW,257,0.0,0.0,78,0.00,,,0.00,Wunderground v.1.15,2013-01-06 00:19:00,
2013-01-05 19:25:00,27.1,21.5,29.74,WSW,257,0.0,0.0,79,0.00,,,0.00,Wunderground v.1.15,2013-01-06 00:25:00,
2013-01-05 19:31:00,27.0,21.4,29.74,WSW,256,0.0,0.0,79,0.00,,,0.00,Wunderground v.1.15,2013-01-06 00:31:00,
2013-01-05 19:36:00,27.0,21.4,29.74,WSW,257,0.0,0.0,79,0.00,,,0.00,Wunderground v.1.15,2013-01-06 00:36:00,
2013-01-05 19:42:00,27.0,21.4,29.74,WSW,256,0.0,0.0,79,0.00,,,0.00,Wunderground v.1.15,2013-01-06 00:42:00,
2013-01-05 19:48:00,26.9,21.6,29.74,WSW,257,0.0,0.0,80,0.00,,,0.00,Wunderground v.1.15,2013-01-06 00:48:00,
2013-01-05 19:54:00,27.0,21.7,29.74,WSW,256,0.0,0.0,80,0.00,,,0.00,Wunderground v.1.15,2013-01-06 00:54:00,
2013-01-05 20:00:00,26.9,21.6,29.74,WSW,257,0.0,0.0,80,0.00,,,0.00,Wunderground v.1.15,2013-01-06 01:00:00,
2013-01-05 20:06:00,26.7,21.4,29.74,WSW,257,0.0,0.0,80,0.00,,,0.00,Wunderground v.1.15,2013-01-06 01:06:00,
2013-01-05 20:11:00,26.6,21.3,29.74,WSW,257,0.0,0.0,80,0.00,,,0.00,Wunderground v.1.15,2013-01-06 01:11:00,
2013-01-05 20:17:00,26.5,21.2,29.74,WSW,257,0.0,0.0,80,0.00,,,0.00,Wunderground v.1.15,2013-01-06 01:17:00,
2013-01-05 20:23:00,26.4,21.1,29.74,WSW,257,0.0,0.0,80,0.00,,,0.00,Wunderground v.1.15,2013-01-06 01:23:00,
2013-01-05 20:28:00,26.3,21.3,29.74,WSW,257,0.0,0.0,81,0.00,,,0.00,Wunderground v.1.15,2013-01-06 01:28:00,
2013-01-05 20:33:00,26.3,21.3,29.74,WSW,257,0.0,0.0,81,0.00,,,0.00,Wunderground v.1.15,2013-01-06 01:33:00,
2013-01-05 20:39:00,26.2,21.2,29.74,WSW,256,0.0,0.0,81,0.00,,,0.00,Wunderground v.1.15,2013-01-06 01:39:00,
2013-01-05 20:45:00,26.1,21.1,29.74,WSW,257,0.0,0.0,81,0.00,,,0.00,Wunderground v.1.15,2013-01-06 01:45:00,
2013-01-05 20:51:00,26.0,21.0,29.74,WSW,257,0.0,0.0,81,0.00,,,0.00,Wunderground v.1.15,2013-01-06 01:51:00,
2013-01-05 20:57:00,25.9,20.9,29.74,WSW,257,0.0,0.0,81,0.00,,,0.00,Wunderground v.1.15,2013-01-06 01:57:00,
2013-01-05 21:03:00,25.8,20.8,29.74,WSW,257,0.0,0.0,81,0.00,,,0.00,Wunderground v.1.15,2013-01-06 02:03:00,
2013-01-05 21:09:00,25.7,21.0,29.74,WSW,257,0.0,0.0,82,0.00,,,0.00,Wunderground v.1.15,2013-01-06 02:09:00,
2013-01-05 21:15:00,25.7,21.0,29.74,WSW,256,0.0,0.0,82,0.00,,,0.00,Wunderground v.1.15,2013-01-06 02:15:00,
2013-01-05 21:20:00,25.8,21.1,29.74,WSW,257,0.0,0.0,82,0.00,,,0.00,Wunderground v.1.15,2013-01-06 02:20:00,
2013-01-05 21:26:00,25.8,21.1,29.74,WSW,257,0.0,0.0,82,0.00,,,0.00,Wunderground v.1.15,2013-01-06 02:26:00,
2013-01-05 21:32:00,26.0,21.5,29.74,WSW,257,0.0,0.0,83,0.00,,,0.00,Wunderground v.1.15,2013-01-06 02:32:00,
2013-01-05 21:37:00,26.2,21.7,29.74,WSW,257,0.0,0.0,83,0.00,,,0.00,Wunderground v.1.15,2013-01-06 02:37:00,
2013-01-05 21:43:00,26.2,21.7,29.74,WSW,256,0.0,0.0,83,0.00,,,0.00,Wunderground v.1.15,2013-01-06 02:43:00,
2013-01-05 21:48:00,26.3,21.8,29.74,WSW,256,0.0,0.0,83,0.00,,,0.00,Wunderground v.1.15,2013-01-06 02:48:00,
2013-01-05 21:54:00,26.5,22.0,29.74,WSW,257,0.0,0.0,83,0.00,,,0.00,Wunderground v.1.15,2013-01-06 02:54:00,
2013-01-05 22:00:00,26.7,22.2,29.74,WSW,257,0.0,0.0,83,0.00,,,0.00,Wunderground v.1.15,2013-01-06 03:00:00,
2013-01-05 22:06:00,27.0,22.5,29.74,WSW,256,0.0,0.0,83,0.00,,,0.00,Wunderground v.1.15,2013-01-06 03:06:00,
2013-01-05 22:12:00,27.3,22.8,29.74,WSW,257,0.0,0.0,83,0.00,,,0.00,Wunderground v.1.15,2013-01-06 03:12:00,
2013-01-05 22:18:00,27.5,22.7,29.74,WSW,256,0.0,0.0,82,0.00,,,0.00,Wunderground v.1.15,2013-01-06 03:18:00,
2013-01-05 22:24:00,27.5,22.7,29.74,WSW,257,0.0,0.0,82,0.00,,,0.00,Wunderground v.1.15,2013-01-06 03:24:00,
2013-01-05 22:30:00,27.6,23.1,29.74,WSW,257,0.0,0.0,83,0.00,,,0.00,Wunderground v.1.15,2013-01-06 03:30:00,
2013-01-05 22:35:00,27.6,22.8,29.74,WSW,256,0.0,0.0,82,0.00,,,0.00,Wunderground v.1.15,2013-01-06 03:35:00,
2013-01-05 22:41:00,27.6,22.8,29.74,WSW,257,0.0,0.0,82,0.00,,,0.00,Wunderground v.1.15,2013-01-06 03:41:00,
2013-01-05 22:46:00,27.6,22.8,29.74,WSW,256,0.0,0.0,82,0.00,,,0.00,Wunderground v.1.15,2013-01-06 03:46:00,
2013-01-05 22:51:00,27.6,22.8,29.74,WSW,257,0.0,0.0,82,0.00,,,0.00,Wunderground v.1.15,2013-01-06 03:51:00,
2013-01-05 22:57:00,27.7,22.9,29.74,WSW,256,0.0,0.0,82,0.00,,,0.00,Wunderground v.1.15,2013-01-06 03:57:00,
2013-01-05 23:03:00,27.8,23.0,29.74,WSW,256,0.0,0.0,82,0.00,,,0.00,Wunderground v.1.15,2013-01-06 04:03:00,
2013-01-05 23:09:00,27.8,23.0,29.74,WSW,257,0.0,0.0,82,0.00,,,0.00,Wunderground v.1.15,2013-01-06 04:09:00,
2013-01-05 23:15:00,27.9,22.8,29.74,WSW,257,0.0,0.0,81,0.00,,,0.00,Wunderground v.1.15,2013-01-06 04:15:00,
2013-01-05 23:20:00,27.9,22.8,29.74,WSW,257,0.0,0.0,81,0.00,,,0.00,Wunderground v.1.15,2013-01-06 04:20:00,
2013-01-05 23:26:00,28.0,22.9,29.74,WSW,256,0.0,0.0,81,0.00,,,0.00,Wunderground v.1.15,2013-01-06 04:26:00,
2013-01-05 23:31:00,28.1,23.0,29.74,WSW,257,0.0,0.0,81,0.00,,,0.00,Wunderground v.1.15,2013-01-06 04:31:00,
2013-01-05 23:37:00,28.0,22.9,29.74,WSW,257,0.0,0.0,81,0.00,,,0.00,Wunderground v.1.15,2013-01-06 04:37:00,
2013-01-05 23:43:00,28.0,23.2,29.74,WSW,257,0.0,0.0,82,0.00,,,0.00,Wunderground v.1.15,2013-01-06 04:43:00,
2013-01-05 23:48:00,28.1,23.3,29.74,WSW,257,0.0,0.0,82,0.00,,,0.00,Wunderground v.1.15,2013-01-06 04:48:00,
2013-01-05 23:54:00,28.2,23.4,29.74,WSW,257,0.0,0.0,82,0.00,,,0.00,Wunderground v.1.15,2013-01-06 04:54:00,
2013-01-05 23:59:00,28.2,23.4,29.74,WSW,257,0.0,0.0,82,0.00,,,0.00,Wunderground v.1.15,2013-01-06 04:59:00,